| time (UTC) | temp F | wind direction | speed knots | gust knots | rain 1hr in | rain 24hr in | rain mn in | humidity % | barometer mb |
| 20260510050710 | 50 | 345 | 0.0 | 0.0 | 0.00 | 0.05 | 0.00 | 95 | 1010.9 |
| 20260510050219 | 50 | 345 | 0.0 | 1.7 | 0.00 | 0.05 | 0.00 | 95 | 1011.0 |
| 20260510045203 | 50 | 345 | 0.0 | 0.0 | 0.00 | 0.05 | 0.00 | 95 | 1011.1 |
| 20260510044702 | 50 | 345 | 0.0 | 0.9 | 0.00 | 0.05 | 0.00 | 95 | 1011.1 |
| 20260510044204 | 50 | 345 | 0.0 | 0.9 | 0.00 | 0.05 | 0.00 | 95 | 1011.1 |
| 20260510043703 | 50 | 345 | 0.0 | 0.0 | 0.00 | 0.05 | 0.00 | 95 | 1011.1 |
| 20260510043201 | 50 | 345 | 0.0 | 0.0 | 0.00 | 0.05 | 0.00 | 95 | 1011.1 |
| 20260510042703 | 50 | 345 | 0.0 | 0.0 | 0.00 | 0.05 | 0.00 | 95 | 1011.2 |
| 20260510042201 | 50 | 345 | 0.0 | 0.0 | 0.00 | 0.05 | 0.00 | 94 | 1011.1 |
| 20260510041700 | 50 | 345 | 0.0 | 0.0 | 0.00 | 0.05 | 0.00 | 95 | 1011.1 |
| 20260510041201 | 50 | 345 | 0.0 | 1.7 | 0.00 | 0.05 | 0.00 | 94 | 1011.1 |
| 20260510040659 | 51 | 345 | 0.9 | 2.6 | 0.00 | 0.05 | 0.00 | 94 | 1011.1 |
| 20260510035155 | 51 | 345 | 0.0 | 1.7 | 0.00 | 0.05 | 0.05 | 95 | 1011.2 |
| 20260510034655 | 51 | 345 | 0.0 | 0.0 | 0.00 | 0.05 | 0.05 | 94 | 1011.2 |
| 20260510034153 | 51 | 345 | 0.0 | 0.0 | 0.00 | 0.05 | 0.05 | 94 | 1011.2 |
| 20260510033656 | 51 | 345 | 0.0 | 0.9 | 0.00 | 0.05 | 0.05 | 94 | 1011.2 |
| 20260510033156 | 51 | 345 | 0.0 | 0.9 | 0.00 | 0.05 | 0.05 | 94 | 1011.2 |
| 20260510032654 | 51 | 345 | 0.0 | 0.9 | 0.00 | 0.05 | 0.05 | 93 | 1011.2 |
| 20260510031154 | 51 | 345 | 0.0 | 0.9 | 0.00 | 0.05 | 0.05 | 92 | 1011.2 |
| 20260510030652 | 52 | 345 | 0.0 | 0.9 | 0.00 | 0.05 | 0.05 | 92 | 1011.3 |
| 20260510025649 | 53 | 345 | 0.9 | 2.6 | 0.00 | 0.05 | 0.05 | 92 | 1011.2 |
| 20260510025149 | 53 | 345 | 0.9 | 2.6 | 0.00 | 0.05 | 0.05 | 91 | 1011.2 |
| 20260510024647 | 53 | 345 | 1.7 | 2.6 | 0.00 | 0.05 | 0.05 | 92 | 1011.1 |
| 20260510023147 | 53 | 100 | 0.0 | 2.6 | 0.00 | 0.05 | 0.05 | 90 | 1011.0 |
| 20260510022652 | 54 | 345 | 0.0 | 1.7 | 0.00 | 0.05 | 0.05 | 90 | 1011.0 |
| 20260510022155 | 54 | 345 | 0.9 | 1.7 | 0.00 | 0.05 | 0.05 | 90 | 1010.9 |
| 20260510021652 | 54 | 345 | 0.9 | 2.6 | 0.00 | 0.05 | 0.05 | 90 | 1010.8 |
| 20260510020648 | 54 | 345 | 1.7 | 4.3 | 0.00 | 0.05 | 0.05 | 91 | 1010.8 |
| 20260510020149 | 54 | 345 | 1.7 | 4.3 | 0.00 | 0.05 | 0.05 | 90 | 1010.8 |
| 20260510015646 | 54 | 345 | 1.7 | 4.3 | 0.00 | 0.05 | 0.05 | 91 | 1010.8 |
| 20260510015149 | 54 | 345 | 1.7 | 3.5 | 0.00 | 0.05 | 0.05 | 91 | 1010.7 |
| 20260510014639 | 54 | 345 | 1.7 | 3.5 | 0.00 | 0.05 | 0.05 | 91 | 1010.7 |
| 20260510013631 | 53 | 345 | 0.9 | 1.7 | 0.00 | 0.05 | 0.05 | 91 | 1010.6 |
| 20260510012632 | 54 | 345 | 0.0 | 0.9 | 0.00 | 0.05 | 0.05 | 89 | 1010.6 |
| 20260510012133 | 54 | 345 | 0.0 | 1.7 | 0.00 | 0.05 | 0.05 | 89 | 1010.5 |
| 20260510011631 | 54 | 345 | 0.9 | 2.6 | 0.00 | 0.05 | 0.05 | 90 | 1010.4 |
| 20260510011131 | 54 | 345 | 0.9 | 2.6 | 0.00 | 0.05 | 0.05 | 90 | 1010.4 |
| 20260510010631 | 55 | 345 | 0.9 | 1.7 | 0.00 | 0.05 | 0.05 | 89 | 1010.2 |
| 20260510010130 | 55 | 128 | 0.9 | 3.5 | 0.00 | 0.05 | 0.05 | 89 | 1010.1 |
| 20260510005640 | 55 | 128 | 0.9 | 3.5 | 0.00 | 0.05 | 0.05 | 89 | 1010.0 |
| 20260510004636 | 55 | 345 | 0.0 | 1.7 | 0.00 | 0.05 | 0.05 | 88 | 1009.9 |
| 20260510004131 | 56 | 127 | 0.0 | 0.0 | 0.00 | 0.05 | 0.05 | 87 | 1009.9 |
| 20260510003133 | 57 | 127 | 0.9 | 2.6 | 0.00 | 0.05 | 0.05 | 86 | 1009.9 |
| 20260510002119 | 57 | 125 | 0.9 | 1.7 | 0.00 | 0.05 | 0.05 | 86 | 1009.7 |
| 20260510001620 | 58 | 125 | 0.9 | 1.7 | 0.00 | 0.05 | 0.05 | 85 | 1009.8 |
| 20260510001120 | 58 | 345 | 0.9 | 1.7 | 0.00 | 0.05 | 0.05 | 85 | 1009.8 |
| 20260510000622 | 58 | 125 | 1.7 | 4.3 | 0.00 | 0.05 | 0.05 | 84 | 1009.8 |
| 20260510000121 | 58 | 125 | 1.7 | 4.3 | 0.00 | 0.05 | 0.05 | 84 | 1009.8 |
| 20260509235623 | 59 | 120 | 1.7 | 3.5 | 0.00 | 0.05 | 0.05 | 83 | 1009.8 |
| 20260509235119 | 59 | 136 | 1.7 | 4.3 | 0.00 | 0.05 | 0.05 | 83 | 1009.8 |
| 20260509234619 | 59 | 345 | 1.7 | 4.3 | 0.00 | 0.05 | 0.05 | 82 | 1009.7 |
| 20260509234120 | 60 | 345 | 1.7 | 4.3 | 0.00 | 0.05 | 0.05 | 81 | 1009.7 |
| 20260509233620 | 60 | 345 | 1.7 | 4.3 | 0.00 | 0.05 | 0.05 | 81 | 1009.7 |
| 20260509233123 | 60 | 137 | 0.9 | 4.3 | 0.00 | 0.05 | 0.05 | 81 | 1009.8 |
| 20260509232623 | 60 | 345 | 1.7 | 3.5 | 0.00 | 0.05 | 0.05 | 81 | 1009.8 |
| 20260509232124 | 60 | 135 | 0.9 | 3.5 | 0.00 | 0.05 | 0.05 | 80 | 1009.7 |
| 20260509231620 | 61 | 345 | 0.9 | 2.6 | 0.00 | 0.05 | 0.05 | 79 | 1009.7 |
| 20260509230122 | 61 | 123 | 0.9 | 2.6 | 0.00 | 0.05 | 0.05 | 78 | 1009.6 |
| 20260509225612 | 61 | 211 | 0.0 | 2.6 | 0.00 | 0.05 | 0.05 | 79 | 1009.7 |
| 20260509225111 | 61 | 211 | 0.9 | 2.6 | 0.00 | 0.05 | 0.05 | 78 | 1009.7 |
| 20260509224613 | 62 | 116 | 0.9 | 2.6 | 0.00 | 0.05 | 0.05 | 77 | 1009.7 |
| 20260509224110 | 62 | 138 | 1.7 | 4.3 | 0.00 | 0.05 | 0.05 | 77 | 1009.8 |
| 20260509223609 | 62 | 138 | 1.7 | 5.2 | 0.00 | 0.05 | 0.05 | 76 | 1009.8 |
| 20260509223111 | 62 | 190 | 0.9 | 5.2 | 0.00 | 0.05 | 0.05 | 76 | 1009.7 |
| 20260509221607 | 62 | 62 | 0.9 | 1.7 | 0.00 | 0.05 | 0.05 | 76 | 1009.6 |
| 20260509221107 | 62 | 61 | 0.0 | 1.7 | 0.00 | 0.05 | 0.05 | 76 | 1009.7 |
| 20260509220607 | 62 | 63 | 0.0 | 1.7 | 0.00 | 0.05 | 0.05 | 75 | 1009.7 |
| 20260509215605 | 62 | 154 | 0.9 | 3.5 | 0.00 | 0.05 | 0.05 | 76 | 1009.8 |
| 20260509215100 | 62 | 133 | 0.9 | 2.6 | 0.00 | 0.05 | 0.05 | 75 | 1009.8 |
| 20260509214600 | 62 | 129 | 0.0 | 1.7 | 0.00 | 0.05 | 0.05 | 78 | 1009.8 |
| 20260509214058 | 62 | 129 | 0.0 | 0.9 | 0.00 | 0.05 | 0.05 | 76 | 1009.9 |
| 20260509213053 | 61 | 129 | 0.0 | 0.0 | 0.00 | 0.05 | 0.05 | 79 | 1010.0 |
| 20260509212552 | 61 | 129 | 0.0 | 0.0 | 0.00 | 0.05 | 0.05 | 80 | 1009.9 |
| 20260509212050 | 61 | 129 | 0.0 | 0.0 | 0.00 | 0.05 | 0.05 | 79 | 1009.9 |
| 20260509211551 | 61 | 129 | 0.0 | 0.0 | 0.00 | 0.05 | 0.05 | 77 | 1010.0 |
| 20260509211050 | 61 | 129 | 0.0 | 0.9 | 0.00 | 0.05 | 0.05 | 77 | 1010.0 |
| 20260509210548 | 60 | 129 | 0.0 | 1.7 | 0.00 | 0.05 | 0.05 | 77 | 1010.0 |
| 20260509210045 | 60 | 129 | 0.0 | 1.7 | 0.00 | 0.05 | 0.05 | 76 | 1009.9 |
| 20260509205542 | 60 | 129 | 0.9 | 2.6 | 0.00 | 0.05 | 0.05 | 79 | 1009.8 |
| 20260509205042 | 60 | 129 | 0.9 | 2.6 | 0.00 | 0.05 | 0.05 | 76 | 1009.8 |
| 20260509204542 | 60 | 149 | 0.0 | 1.7 | 0.00 | 0.05 | 0.05 | 76 | 1009.9 |
| 20260509204043 | 60 | 149 | 0.9 | 2.6 | 0.00 | 0.05 | 0.05 | 76 | 1010.0 |
| 20260509203540 | 60 | 149 | 0.9 | 3.5 | 0.00 | 0.05 | 0.05 | 77 | 1010.0 |
| 20260509203039 | 60 | 132 | 1.7 | 3.5 | 0.00 | 0.05 | 0.05 | 78 | 1010.0 |
| 20260509202533 | 60 | 135 | 0.9 | 3.5 | 0.00 | 0.05 | 0.05 | 78 | 1010.0 |
| 20260509202035 | 60 | 122 | 0.9 | 4.3 | 0.00 | 0.05 | 0.05 | 78 | 1010.1 |
| 20260509201536 | 60 | 141 | 0.9 | 4.3 | 0.00 | 0.05 | 0.05 | 78 | 1010.1 |
| 20260509200536 | 60 | 142 | 0.9 | 2.6 | 0.00 | 0.05 | 0.05 | 77 | 1010.2 |
| 20260509200031 | 60 | 120 | 0.9 | 1.7 | 0.00 | 0.05 | 0.05 | 77 | 1010.2 |
| 20260509195533 | 60 | 120 | 0.9 | 1.7 | 0.00 | 0.05 | 0.05 | 76 | 1010.2 |
| 20260509194532 | 61 | 119 | 0.9 | 4.3 | 0.00 | 0.05 | 0.05 | 78 | 1010.1 |
| 20260509194030 | 61 | 124 | 0.0 | 2.6 | 0.00 | 0.05 | 0.05 | 77 | 1010.3 |
| 20260509193530 | 61 | 126 | 0.0 | 1.7 | 0.00 | 0.05 | 0.05 | 80 | 1010.3 |
| 20260509193028 | 61 | 126 | 0.9 | 2.6 | 0.00 | 0.05 | 0.05 | 78 | 1010.5 |
| 20260509192529 | 61 | 126 | 0.9 | 2.6 | 0.00 | 0.05 | 0.05 | 79 | 1010.3 |
| 20260509191026 | 62 | 174 | 1.7 | 5.2 | 0.00 | 0.05 | 0.05 | 77 | 1010.3 |
| 20260509190530 | 61 | 345 | 1.7 | 5.2 | 0.00 | 0.05 | 0.05 | 77 | 1010.2 |
| 20260509190027 | 61 | 345 | 1.7 | 3.5 | 0.00 | 0.05 | 0.05 | 78 | 1010.3 |
| 20260509185528 | 61 | 117 | 0.9 | 3.5 | 0.00 | 0.05 | 0.05 | 79 | 1010.3 |
| 20260509185023 | 61 | 136 | 0.9 | 3.5 | 0.00 | 0.05 | 0.05 | 80 | 1010.2 |
| 20260509184523 | 60 | 124 | 0.9 | 3.5 | 0.00 | 0.05 | 0.05 | 82 | 1010.5 |
| 20260509184022 | 60 | 345 | 2.6 | 5.2 | 0.00 | 0.05 | 0.05 | 81 | 1010.7 |
| 20260509183022 | 59 | 129 | 1.7 | 4.3 | 0.00 | 0.05 | 0.05 | 81 | 1010.8 |
| 20260509182525 | 59 | 140 | 0.9 | 4.3 | 0.00 | 0.05 | 0.05 | 83 | 1010.9 |
| 20260509182020 | 59 | 157 | 0.9 | 4.3 | 0.00 | 0.05 | 0.05 | 82 | 1011.1 |
| 20260509180015 | 58 | 326 | 0.0 | 2.6 | 0.00 | 0.05 | 0.05 | 79 | 1011.8 |
| 20260509175516 | 58 | 326 | 0.0 | 2.6 | 0.00 | 0.05 | 0.05 | 77 | 1011.8 |
| 20260509175014 | 58 | 128 | 0.9 | 1.7 | 0.00 | 0.05 | 0.05 | 76 | 1011.6 |
| 20260509174513 | 58 | 128 | 0.9 | 1.7 | 0.00 | 0.05 | 0.05 | 76 | 1011.5 |
| 20260509174014 | 58 | 331 | 0.9 | 1.7 | 0.00 | 0.05 | 0.05 | 79 | 1011.5 |
| 20260509173513 | 59 | 331 | 0.9 | 1.7 | 0.00 | 0.05 | 0.05 | 82 | 1011.5 |
| 20260509173010 | 59 | 331 | 0.0 | 1.7 | 0.00 | 0.05 | 0.05 | 82 | 1011.5 |
| 20260509172510 | 58 | 331 | 0.9 | 1.7 | 0.00 | 0.05 | 0.05 | 81 | 1011.6 |
| 20260509172006 | 58 | 331 | 0.9 | 2.6 | 0.00 | 0.05 | 0.05 | 80 | 1011.6 |
| 20260509171508 | 58 | 330 | 0.9 | 2.6 | 0.00 | 0.05 | 0.05 | 79 | 1011.8 |
| 20260509171007 | 58 | 104 | 0.0 | 1.7 | 0.00 | 0.05 | 0.05 | 75 | 1011.8 |
| 20260509170506 | 58 | 104 | 0.9 | 1.7 | 0.00 | 0.05 | 0.05 | 75 | 1011.8 |
| 20260509170008 | 58 | 102 | 0.0 | 1.7 | 0.00 | 0.05 | 0.05 | 75 | 1011.9 |
| 20260509165506 | 58 | 102 | 0.0 | 1.7 | 0.00 | 0.05 | 0.05 | 76 | 1011.9 |
| 20260509165007 | 58 | 67 | 0.0 | 1.7 | 0.00 | 0.05 | 0.05 | 76 | 1011.9 |
| 20260509164507 | 58 | 67 | 0.0 | 1.7 | 0.00 | 0.05 | 0.05 | 78 | 1011.9 |
| 20260509163508 | 58 | 67 | 0.9 | 2.6 | 0.00 | 0.05 | 0.05 | 77 | 1012.0 |
| 20260509163008 | 58 | 125 | 0.9 | 2.6 | 0.00 | 0.05 | 0.05 | 76 | 1012.2 |
| 20260509162505 | 58 | 129 | 0.9 | 3.5 | 0.00 | 0.05 | 0.05 | 74 | 1011.9 |
| 20260509161504 | 58 | 221 | 1.7 | 6.1 | 0.00 | 0.05 | 0.05 | 80 | 1012.0 |
| 20260509161006 | 58 | 355 | 1.7 | 4.3 | 0.01 | 0.05 | 0.05 | 81 | 1011.9 |
| 20260509160006 | 57 | 336 | 1.7 | 6.1 | 0.01 | 0.05 | 0.05 | 82 | 1011.8 |
| 20260509155505 | 57 | 340 | 1.7 | 4.3 | 0.01 | 0.05 | 0.05 | 82 | 1011.8 |
| 20260509155006 | 57 | 329 | 1.7 | 4.3 | 0.01 | 0.05 | 0.05 | 85 | 1011.9 |
| 20260509154007 | 56 | 345 | 1.7 | 3.5 | 0.01 | 0.05 | 0.05 | 88 | 1012.2 |
| 20260509153506 | 55 | 345 | 0.9 | 2.6 | 0.01 | 0.05 | 0.05 | 92 | 1012.3 |
| 20260509153004 | 55 | 194 | 0.0 | 2.6 | 0.01 | 0.05 | 0.05 | 93 | 1012.2 |
| 20260509152507 | 54 | 186 | 0.0 | 0.0 | 0.02 | 0.05 | 0.05 | 94 | 1011.7 |
| 20260509152006 | 53 | 345 | 0.0 | 0.0 | 0.02 | 0.05 | 0.05 | 94 | 1011.5 |
| 20260509151505 | 53 | 186 | 0.0 | 0.0 | 0.02 | 0.05 | 0.05 | 93 | 1011.9 |
| 20260509151004 | 53 | 345 | 0.0 | 0.0 | 0.01 | 0.04 | 0.04 | 94 | 1012.3 |
| 20260509150506 | 53 | 345 | 0.0 | 0.0 | 0.02 | 0.04 | 0.04 | 93 | 1012.3 |
| 20260509150005 | 52 | 345 | 0.0 | 0.0 | 0.02 | 0.04 | 0.04 | 93 | 1012.4 |
| 20260509145507 | 52 | 345 | 0.0 | 0.0 | 0.03 | 0.04 | 0.04 | 93 | 1012.6 |
| 20260509145009 | 52 | 345 | 0.0 | 0.9 | 0.03 | 0.04 | 0.04 | 93 | 1012.7 |
| 20260509144521 | 52 | 186 | 0.0 | 0.9 | 0.03 | 0.04 | 0.04 | 92 | 1012.7 |
| 20260509144010 | 52 | 186 | 0.0 | 0.0 | 0.04 | 0.04 | 0.04 | 92 | 1012.6 |
| 20260509143508 | 52 | 345 | 0.0 | 0.0 | 0.04 | 0.04 | 0.04 | 91 | 1012.5 |
| 20260509143009 | 52 | 345 | 0.0 | 0.0 | 0.04 | 0.04 | 0.04 | 91 | 1012.6 |
| 20260509142511 | 52 | 345 | 0.0 | 0.0 | 0.03 | 0.03 | 0.03 | 90 | 1012.4 |
| 20260509142009 | 52 | 345 | 0.0 | 0.9 | 0.03 | 0.03 | 0.03 | 90 | 1012.5 |
| 20260509141508 | 53 | 345 | 0.9 | 2.6 | 0.03 | 0.03 | 0.03 | 89 | 1012.5 |
| 20260509141009 | 53 | 345 | 0.9 | 2.6 | 0.03 | 0.03 | 0.03 | 89 | 1012.4 |
| 20260509140509 | 53 | 310 | 0.9 | 2.6 | 0.02 | 0.02 | 0.02 | 88 | 1012.2 |
| 20260509140005 | 53 | 310 | 0.0 | 2.6 | 0.02 | 0.02 | 0.02 | 87 | 1012.0 |
| 20260509135513 | 54 | 150 | 0.0 | 1.7 | 0.01 | 0.01 | 0.01 | 86 | 1012.0 |
| 20260509134500 | 54 | 150 | 0.9 | 1.7 | 0.01 | 0.01 | 0.01 | 83 | 1011.9 |
| 20260509133958 | 54 | 150 | 0.9 | 1.7 | 0.00 | 0.00 | 0.00 | 81 | 1011.8 |
| 20260509133458 | 55 | 345 | 0.9 | 1.7 | 0.00 | 0.00 | 0.00 | 80 | 1011.9 |
| 20260509132957 | 55 | 345 | 0.9 | 2.6 | 0.00 | 0.00 | 0.00 | 79 | 1012.0 |
| 20260509132455 | 55 | 345 | 0.9 | 2.6 | 0.00 | 0.00 | 0.00 | 79 | 1011.9 |
| 20260509131452 | 55 | 345 | 0.9 | 2.6 | 0.00 | 0.00 | 0.00 | 78 | 1011.9 |
| 20260509130953 | 55 | 345 | 0.9 | 3.5 | 0.00 | 0.00 | 0.00 | 77 | 1011.8 |
| 20260509130452 | 55 | 345 | 1.7 | 3.5 | 0.00 | 0.00 | 0.00 | 77 | 1011.9 |
| 20260509125953 | 55 | 345 | 1.7 | 3.5 | 0.00 | 0.00 | 0.00 | 77 | 1011.8 |
| 20260509125452 | 55 | 345 | 0.9 | 3.5 | 0.00 | 0.00 | 0.00 | 77 | 1011.8 |
| 20260509124958 | 55 | 345 | 0.9 | 2.6 | 0.00 | 0.00 | 0.00 | 77 | 1011.8 |
| 20260509124457 | 55 | 345 | 0.9 | 2.6 | 0.00 | 0.00 | 0.00 | 77 | 1011.8 |
| 20260509123448 | 55 | 345 | 0.9 | 5.2 | 0.00 | 0.00 | 0.00 | 75 | 1011.8 |
| 20260509122944 | 55 | 345 | 0.9 | 3.5 | 0.00 | 0.00 | 0.00 | 76 | 1011.8 |
| 20260509121941 | 55 | 345 | 1.7 | 5.2 | 0.00 | 0.00 | 0.00 | 75 | 1011.9 |
| 20260509121441 | 55 | 345 | 1.7 | 5.2 | 0.00 | 0.00 | 0.00 | 75 | 1011.9 |
| 20260509120936 | 55 | 345 | 0.9 | 4.3 | 0.00 | 0.00 | 0.00 | 75 | 1011.9 |
| 20260509115434 | 54 | 345 | 1.7 | 5.2 | 0.00 | 0.00 | 0.00 | 75 | 1011.8 |
| 20260509114930 | 54 | 345 | 0.9 | 4.3 | 0.00 | 0.00 | 0.00 | 76 | 1011.7 |
| 20260509114433 | 54 | 128 | 0.9 | 2.6 | 0.00 | 0.00 | 0.00 | 76 | 1011.7 |
| 20260509113930 | 54 | 173 | 1.7 | 4.3 | 0.00 | 0.00 | 0.00 | 76 | 1011.6 |
| 20260509113430 | 53 | 345 | 1.7 | 4.3 | 0.00 | 0.00 | 0.00 | 77 | 1011.6 |
| 20260509112931 | 53 | 345 | 1.7 | 3.5 | 0.00 | 0.00 | 0.00 | 77 | 1011.5 |
| 20260509111426 | 53 | 73 | 0.9 | 2.6 | 0.00 | 0.00 | 0.00 | 76 | 1011.4 |
| 20260509110927 | 53 | 73 | 0.9 | 1.7 | 0.00 | 0.00 | 0.00 | 76 | 1011.4 |
| 20260509110418 | 53 | 76 | 0.0 | 1.7 | 0.00 | 0.00 | 0.00 | 75 | 1011.3 |
| 20260509105419 | 53 | 78 | 0.9 | 1.7 | 0.00 | 0.00 | 0.00 | 75 | 1011.2 |
| 20260509104919 | 53 | 78 | 0.9 | 2.6 | 0.00 | 0.00 | 0.00 | 75 | 1011.2 |
| 20260509104414 | 53 | 69 | 0.9 | 2.6 | 0.00 | 0.00 | 0.00 | 76 | 1011.1 |
| 20260509103915 | 53 | 73 | 0.0 | 1.7 | 0.00 | 0.00 | 0.00 | 75 | 1011.1 |
| 20260509103414 | 53 | 71 | 0.0 | 1.7 | 0.00 | 0.00 | 0.00 | 75 | 1011.1 |
| 20260509102913 | 53 | 345 | 0.9 | 2.6 | 0.00 | 0.00 | 0.00 | 74 | 1011.0 |
| 20260509102410 | 52 | 57 | 0.0 | 2.6 | 0.00 | 0.00 | 0.00 | 75 | 1011.1 |
| 20260509101918 | 52 | 118 | 0.0 | 1.7 | 0.00 | 0.00 | 0.00 | 75 | 1011.0 |
| 20260509095910 | 52 | 65 | 0.9 | 2.6 | 0.00 | 0.00 | 0.00 | 75 | 1011.0 |
| 20260509095410 | 52 | 65 | 0.9 | 1.7 | 0.00 | 0.00 | 0.00 | 75 | 1011.0 |
| 20260509094905 | 52 | 66 | 0.9 | 2.6 | 0.00 | 0.00 | 0.00 | 76 | 1010.9 |
| 20260509094406 | 52 | 63 | 0.0 | 2.6 | 0.00 | 0.00 | 0.00 | 75 | 1010.9 |
| 20260509093906 | 52 | 59 | 0.0 | 0.0 | 0.00 | 0.00 | 0.00 | 76 | 1010.9 |
| 20260509093405 | 52 | 83 | 0.0 | 0.0 | 0.00 | 0.00 | 0.00 | 76 | 1010.9 |
| 20260509092906 | 52 | 84 | 0.0 | 0.0 | 0.00 | 0.00 | 0.00 | 76 | 1010.9 |
| 20260509092404 | 52 | 88 | 0.0 | 0.9 | 0.00 | 0.00 | 0.00 | 76 | 1011.0 |
| 20260509091903 | 52 | 86 | 0.0 | 0.9 | 0.00 | 0.00 | 0.00 | 75 | 1011.1 |
| 20260509091404 | 53 | 86 | 0.0 | 1.7 | 0.00 | 0.00 | 0.00 | 75 | 1011.1 |
| 20260509090905 | 53 | 92 | 0.0 | 1.7 | 0.00 | 0.00 | 0.00 | 75 | 1011.1 |
| 20260509090402 | 53 | 79 | 0.9 | 3.5 | 0.00 | 0.00 | 0.00 | 75 | 1011.1 |
| 20260509085901 | 53 | 81 | 0.9 | 3.5 | 0.00 | 0.00 | 0.00 | 75 | 1011.1 |
| 20260509085402 | 53 | 73 | 0.9 | 2.6 | 0.00 | 0.00 | 0.00 | 75 | 1011.1 |
| 20260509084900 | 52 | 86 | 0.9 | 5.2 | 0.00 | 0.00 | 0.00 | 75 | 1011.2 |
| 20260509084357 | 52 | 65 | 0.9 | 5.2 | 0.00 | 0.00 | 0.00 | 75 | 1011.2 |
| 20260509083858 | 52 | 62 | 0.9 | 3.5 | 0.00 | 0.00 | 0.00 | 75 | 1011.3 |
| 20260509083356 | 52 | 81 | 0.9 | 5.2 | 0.00 | 0.00 | 0.00 | 75 | 1011.3 |
| 20260509082858 | 52 | 75 | 1.7 | 5.2 | 0.00 | 0.00 | 0.00 | 76 | 1011.4 |
| 20260509082355 | 52 | 90 | 1.7 | 5.2 | 0.00 | 0.00 | 0.00 | 75 | 1011.4 |
| 20260509081855 | 52 | 77 | 0.9 | 3.5 | 0.00 | 0.00 | 0.00 | 76 | 1011.3 |
| 20260509081356 | 52 | 78 | 0.9 | 3.5 | 0.00 | 0.00 | 0.00 | 76 | 1011.3 |
| 20260509080351 | 52 | 78 | 0.9 | 3.5 | 0.00 | 0.00 | 0.00 | 76 | 1011.5 |
| 20260509075853 | 52 | 85 | 1.7 | 3.5 | 0.00 | 0.00 | 0.00 | 77 | 1011.5 |
| 20260509075353 | 52 | 65 | 0.9 | 3.5 | 0.00 | 0.00 | 0.00 | 77 | 1011.5 |
| 20260509074353 | 52 | 50 | 1.7 | 3.5 | 0.00 | 0.00 | 0.00 | 78 | 1011.4 |
| 20260509073853 | 52 | 54 | 1.7 | 2.6 | 0.00 | 0.00 | 0.00 | 78 | 1011.4 |
| 20260509073348 | 52 | 46 | 1.7 | 3.5 | 0.00 | 0.00 | 0.00 | 78 | 1011.4 |
| 20260509072850 | 52 | 71 | 0.9 | 3.5 | 0.00 | 0.00 | 0.00 | 78 | 1011.5 |
| 20260509072348 | 52 | 76 | 0.9 | 2.6 | 0.00 | 0.00 | 0.00 | 78 | 1011.5 |
| 20260509071345 | 52 | 54 | 0.9 | 3.5 | 0.00 | 0.00 | 0.00 | 78 | 1011.6 |
| 20260509070845 | 52 | 64 | 0.9 | 3.5 | 0.00 | 0.00 | 0.00 | 79 | 1011.6 |
| 20260509070346 | 52 | 61 | 0.9 | 3.5 | 0.00 | 0.00 | 0.00 | 79 | 1011.6 |
| 20260509064844 | 52 | 75 | 1.7 | 4.3 | 0.00 | 0.00 | 0.00 | 79 | 1011.6 |
| 20260509064342 | 52 | 69 | 1.7 | 6.1 | 0.00 | 0.00 | 0.00 | 79 | 1011.5 |
| 20260509063842 | 52 | 75 | 1.7 | 6.1 | 0.00 | 0.00 | 0.00 | 79 | 1011.5 |
| 20260509062840 | 53 | 62 | 1.7 | 4.3 | 0.00 | 0.00 | 0.00 | 80 | 1011.5 |
| 20260509062341 | 53 | 92 | 2.6 | 4.3 | 0.00 | 0.00 | 0.00 | 80 | 1011.5 |
| 20260509061845 | 53 | 44 | 2.6 | 5.2 | 0.00 | 0.00 | 0.00 | 80 | 1011.4 |
| 20260509061342 | 53 | 55 | 1.7 | 5.2 | 0.00 | 0.00 | 0.00 | 80 | 1011.5 |
| 20260509060840 | 53 | 69 | 1.7 | 5.2 | 0.00 | 0.00 | 0.00 | 81 | 1011.6 |
| 20260509060341 | 53 | 56 | 1.7 | 5.2 | 0.00 | 0.00 | 0.00 | 81 | 1011.7 |
| 20260509055843 | 53 | 56 | 1.7 | 4.3 | 0.00 | 0.00 | 0.00 | 81 | 1011.8 |
| 20260509055341 | 53 | 65 | 1.7 | 4.3 | 0.00 | 0.00 | 0.00 | 82 | 1011.8 |
| 20260509054339 | 53 | 59 | 1.7 | 3.5 | 0.00 | 0.00 | 0.00 | 82 | 1011.9 |
| 20260509053838 | 53 | 57 | 1.7 | 3.5 | 0.00 | 0.00 | 0.00 | 82 | 1011.9 |
| 20260509053340 | 53 | 60 | 1.7 | 3.5 | 0.00 | 0.00 | 0.00 | 82 | 1012.0 |
| 20260509052837 | 53 | 56 | 1.7 | 3.5 | 0.00 | 0.00 | 0.00 | 82 | 1012.2 |
| 20260509052337 | 52 | 57 | 1.7 | 3.5 | 0.00 | 0.00 | 0.00 | 82 | 1012.3 |
| 20260509051836 | 52 | 61 | 0.9 | 2.6 | 0.00 | 0.00 | 0.00 | 82 | 1012.3 |